Location: Newark
(45.2500°N, 7.5833°E)
Time: 01:32:28
(UTC+00:00)

N. Korean satellite - Pass Details

Date: 21 December 2019
Orbit: 454 x 507 km, 97.2° (Epoch: 23 January)

Event Time Altitude Azimuth Distance (km) Brightness Sun altitude
Rises 05:00:32 0° 18° (NNE) 2,506 10.3 -21.0°
Reaches altitude 10° 05:02:41 10° 26° (NNE) 1,618 9.4 -20.6°
Maximum altitude 05:05:59 41° 98° (E) 680 7.8 -20.1°
Drops below altitude 10° 05:09:13 10° 170° (S) 1,590 9.5 -19.5°
Sets 05:11:18 0° 178° (S) 2,456 10.4 -19.1°
